TimeMST,TemperatureF,Dew PointF,Humidity,Sea Level PressureIn,VisibilityMPH,Wind Direction,Wind SpeedMPH,Gust SpeedMPH,PrecipitationIn,Events,Conditions,WindDirDegrees,DateUTC
12:53 AM,-9.9,-14.1,82,30.63,10.0,WSW,6.9,-,N/A,,Clear,250,2013-12-12 07:53:00
1:53 AM,-9.9,-11.9,91,30.61,10.0,WSW,4.6,-,N/A,,Clear,250,2013-12-12 08:53:00
2:53 AM,-6.0,-9.9,83,30.60,10.0,West,4.6,-,N/A,,Clear,260,2013-12-12 09:53:00
3:53 AM,-9.9,-14.1,82,30.64,10.0,WSW,6.9,-,N/A,,Clear,250,2013-12-12 10:53:00
4:53 AM,-9.0,-13.0,83,30.66,10.0,WSW,3.5,-,N/A,,Clear,250,2013-12-12 11:53:00
5:53 AM,-4.0,-9.0,79,30.71,10.0,WSW,5.8,-,N/A,,Clear,240,2013-12-12 12:53:00
6:53 AM,1.0,-4.0,79,30.66,10.0,West,5.8,-,N/A,,Clear,280,2013-12-12 13:53:00
7:53 AM,-9.0,-14.1,79,30.74,10.0,Variable,4.6,-,N/A,,Clear,0,2013-12-12 14:53:00
8:53 AM,-4.0,-7.1,87,30.73,10.0,WSW,3.5,-,N/A,,Clear,250,2013-12-12 15:53:00
9:53 AM,5.0,1.9,87,30.69,10.0,SW,4.6,-,N/A,,Clear,230,2013-12-12 16:53:00
10:53 AM,14.0,5.0,67,30.61,10.0,SSW,3.5,-,N/A,,Clear,210,2013-12-12 17:53:00
11:53 AM,21.0,9.0,60,30.55,10.0,Calm,Calm,-,N/A,,Clear,0,2013-12-12 18:53:00
12:53 PM,28.0,9.0,45,30.47,10.0,Calm,Calm,-,N/A,,Clear,0,2013-12-12 19:53:00
1:53 PM,30.0,17.1,59,30.43,10.0,SE,9.2,-,N/A,,Clear,130,2013-12-12 20:53:00
2:53 PM,28.0,15.1,58,30.40,10.0,SE,6.9,-,N/A,,Clear,130,2013-12-12 21:53:00
3:53 PM,24.1,12.0,60,30.43,10.0,ESE,3.5,-,N/A,,Clear,110,2013-12-12 22:53:00
4:53 PM,23.0,10.9,60,30.43,10.0,Calm,Calm,-,N/A,,Clear,0,2013-12-12 23:53:00
5:53 PM,8.1,3.0,80,30.47,10.0,Calm,Calm,-,N/A,,Clear,0,2013-12-13 00:53:00
6:53 PM,10.9,3.9,73,30.42,10.0,WSW,4.6,-,N/A,,Clear,240,2013-12-13 01:53:00
7:53 PM,8.1,3.0,80,30.48,10.0,West,8.1,-,N/A,,Clear,260,2013-12-13 02:53:00
8:53 PM,9.0,5.0,84,30.43,10.0,Calm,Calm,-,N/A,,Clear,0,2013-12-13 03:53:00
9:53 PM,9.0,5.0,84,30.37,10.0,WSW,3.5,-,N/A,,Clear,240,2013-12-13 04:53:00
10:53 PM,12.9,9.0,84,30.27,10.0,West,11.5,-,N/A,,Clear,270,2013-12-13 05:53:00
11:53 PM,7.0,5.0,92,30.26,10.0,WSW,6.9,-,N/A,,Clear,240,2013-12-13 06:53:00